Date String (YYYY-MM-DD hh:mm:ss) UTC,Instrument flags,Ambient pressure (hPa),Sample flow (lpm),Bypass flow (lpm),Sample temperature (°C),Ambient temperature (°C),ASC tube jacket temperature (°C),LED temperature (°C),Box temperature (°C),Sample RH (%),Span deviation,Mass concentration (μg/m³),Mass concentration (μg/m³),Mass concentration (μg/m³)
DateTimeUTC,F1_M11,P_M11,Q1_M11,Q2_M11,T1_M11,T2_M11,T3_M11,T4_M11,T5_M11,U1_M11,ZSPAN_M11,X0_M11,X2_M11,X1_M11
2022-12-11 14:00:00,,0821.3,5.02,0.00,21.9,20.3,00.0,30.7,23.7,06.7,0000.0,0004.65,0002.58,0002.09
2022-12-11 14:01:00,,0821.3,4.99,0.00,21.9,20.3,00.0,30.7,23.7,06.8,0000.0,0004.23,0002.40,0001.94
2022-12-11 14:02:00,,0821.3,4.99,0.00,21.9,20.2,00.0,30.7,23.6,06.8,0000.0,0003.82,0002.15,0001.74
2022-12-11 14:03:00,,0821.2,5.01,0.00,21.8,20.2,00.0,30.7,23.6,06.7,0000.0,0003.57,0001.98,0001.57
2022-12-11 14:04:00,,0821.2,4.98,0.00,21.8,20.1,00.0,30.7,23.6,06.7,0000.0,0003.47,0001.88,0001.47
2022-12-11 14:05:00,,0821.2,5.02,0.00,21.8,20.1,00.0,30.7,23.6,06.8,0000.0,0003.43,0001.84,0001.42
2022-12-11 14:06:00,,0821.2,4.98,0.00,21.8,20.2,00.0,30.6,23.6,06.7,0000.0,0003.41,0001.81,0001.39
2022-12-11 14:07:00,,0821.2,5.02,0.00,21.8,20.2,00.0,30.6,23.6,06.4,0000.0,0003.99,0001.81,0001.36
2022-12-11 14:08:00,,0821.2,5.01,0.00,21.8,20.2,00.0,30.6,23.6,06.4,0000.0,0003.65,0001.76,0001.32
2022-12-11 14:09:00,,0821.1,4.98,0.00,21.8,20.2,00.0,30.6,23.6,06.3,0000.0,0003.60,0001.71,0001.30
2022-12-11 14:10:00,,0821.1,5.00,0.00,21.7,20.3,00.0,30.6,23.6,06.3,0000.0,0003.64,0001.66,0001.25
2022-12-11 14:11:00,,0821.1,5.02,0.00,21.8,20.4,00.0,30.6,23.6,06.3,0000.0,0003.53,0001.58,0001.18
2022-12-11 14:12:00,,0821.2,4.98,0.00,21.8,20.4,00.0,30.6,23.6,06.2,0000.0,0003.35,0001.47,0001.10
2022-12-11 14:13:00,,0821.2,5.00,0.00,21.8,20.4,00.0,30.6,23.6,06.3,0000.0,0003.26,0001.39,0001.04
2022-12-11 14:14:00,,0821.2,5.03,0.00,21.8,20.4,00.0,30.6,23.6,06.3,0000.0,0003.04,0001.25,0000.97
2022-12-11 14:15:00,,0821.2,4.99,0.00,21.8,20.4,00.0,30.6,23.5,06.3,0000.0,0003.03,0001.21,0000.92
2022-12-11 14:16:00,,0821.2,4.98,0.00,21.8,20.5,00.0,30.6,23.5,06.3,0000.0,0002.89,0001.12,0000.85
2022-12-11 14:17:00,,0821.2,5.00,0.00,21.8,20.5,00.0,30.6,23.6,06.2,0000.0,0002.79,0001.07,0000.80
2022-12-11 14:18:00,,0821.2,5.02,0.00,21.8,20.5,00.0,30.6,23.6,06.2,0000.0,0002.15,0001.07,0000.80
2022-12-11 14:19:00,,0821.2,4.99,0.00,21.8,20.5,00.0,30.6,23.6,06.2,0000.0,0001.94,0001.10,0000.81
2022-12-11 14:20:00,,0821.2,4.99,0.00,21.8,20.6,00.0,30.6,23.6,06.5,0000.0,0001.82,0001.12,0000.84
2022-12-11 14:21:00,,0821.2,5.02,0.00,21.8,20.6,00.0,30.6,23.7,07.1,0000.0,0001.94,0001.27,0000.97
2022-12-11 14:22:00,,0821.2,5.00,0.00,21.8,20.6,00.0,30.6,23.6,07.0,0000.0,0002.18,0001.41,0001.07
2022-12-11 14:23:00,,0821.2,4.98,0.00,21.8,20.6,00.0,30.6,23.7,06.8,0000.0,0002.78,0001.54,0001.15
2022-12-11 14:24:00,,0821.2,4.98,0.00,21.9,21.2,00.0,30.6,23.8,06.7,0000.0,0002.88,0001.58,0001.18
2022-12-11 14:25:00,,0821.2,5.00,0.00,22.0,22.2,00.0,30.6,24.1,06.5,0000.0,0002.87,0001.57,0001.18
2022-12-11 14:26:00,,0821.1,5.01,0.00,22.1,22.3,00.0,30.7,24.2,06.8,0000.0,0002.80,0001.54,0001.17
2022-12-11 14:27:00,,0821.2,5.01,0.00,22.1,21.9,00.0,30.7,24.1,06.8,0000.0,0002.91,0001.56,0001.18
2022-12-11 14:28:00,,0821.2,4.98,0.00,22.1,21.6,00.0,30.8,24.1,06.6,0000.0,0002.83,0001.52,0001.18
2022-12-11 14:29:00,,0821.2,4.99,0.00,22.1,21.4,00.0,30.8,24.1,06.9,0000.0,0003.06,0001.61,0001.24
2022-12-11 14:30:00,,0821.1,5.01,0.00,22.1,21.2,00.0,30.8,24.1,06.7,0000.0,0003.16,0001.68,0001.32
2022-12-11 14:31:00,,0821.2,5.00,0.00,22.1,21.1,00.0,30.8,24.0,06.5,0000.0,0003.32,0001.71,0001.34
2022-12-11 14:32:00,,0821.1,4.98,0.00,22.1,21.0,00.0,30.8,24.0,06.6,0000.0,0003.31,0001.63,0001.26
2022-12-11 14:33:00,,0821.2,5.01,0.00,22.1,20.9,00.0,30.8,24.0,06.5,0000.0,0003.33,0001.57,0001.20
2022-12-11 14:34:00,,0821.2,5.00,0.00,22.1,20.9,00.0,30.9,24.0,06.5,0000.0,0003.35,0001.50,0001.14
2022-12-11 14:35:00,,0821.1,4.97,0.00,22.1,20.9,00.0,30.9,24.0,06.5,0000.0,0003.68,0001.48,0001.13
2022-12-11 14:36:00,,0821.1,5.03,0.00,22.1,20.9,00.0,30.9,24.0,06.6,0000.0,0003.85,0001.52,0001.15
2022-12-11 14:37:00,,0821.2,5.00,0.00,22.1,20.9,00.0,30.9,24.0,06.5,0000.0,0003.81,0001.52,0001.13
2022-12-11 14:38:00,,0821.2,4.99,0.00,22.1,20.9,00.0,30.9,24.0,06.3,0000.0,0003.70,0001.49,0001.10
2022-12-11 14:39:00,,0821.1,5.01,0.00,22.1,20.9,00.0,30.9,24.0,06.1,0000.0,0003.65,0001.45,0001.07
2022-12-11 14:40:00,,0821.1,5.00,0.00,22.1,20.8,00.0,30.9,23.9,06.1,0000.0,0003.40,0001.33,0000.99
2022-12-11 14:41:00,,0821.1,4.98,0.00,22.1,20.7,00.0,30.9,23.9,06.2,0000.0,0003.53,0001.22,0000.89
2022-12-11 14:42:00,,0821.1,5.02,0.00,22.1,20.6,00.0,30.9,23.9,06.2,0000.0,0004.06,0001.15,0000.84
2022-12-11 14:43:00,,0821.1,4.99,0.00,22.0,20.6,00.0,30.9,23.8,06.3,0000.0,0003.92,0001.07,0000.78
2022-12-11 14:44:00,,0821.1,4.98,0.00,22.0,20.6,00.0,30.9,23.8,06.4,0000.0,0003.75,0001.01,0000.74
2022-12-11 14:45:00,,0821.0,5.03,0.00,22.0,20.6,00.0,30.9,23.8,06.2,0000.0,0003.24,0000.98,0000.72
2022-12-11 14:46:00,,0821.1,5.00,0.00,22.0,20.6,00.0,30.9,23.8,06.2,0000.0,0002.73,0000.92,0000.68
2022-12-11 14:47:00,,0821.1,4.98,0.00,22.0,20.5,00.0,30.9,23.8,06.3,0000.0,0002.62,0000.90,0000.67
2022-12-11 14:48:00,,0821.0,5.01,0.00,22.0,20.5,00.0,30.8,23.8,06.3,0000.0,0002.77,0000.96,0000.71
2022-12-11 14:49:00,,0821.0,5.01,0.00,21.9,20.5,00.0,30.8,23.7,06.2,0000.0,0002.93,0001.03,0000.74
2022-12-11 14:50:00,,0821.0,4.98,0.00,21.9,20.4,00.0,30.8,23.7,06.2,0000.0,0002.99,0001.07,0000.76
2022-12-11 14:51:00,,0821.0,5.00,0.00,21.9,20.4,00.0,30.8,23.7,06.2,0000.0,0003.10,0001.13,0000.78
2022-12-11 14:52:00,,0820.9,5.01,0.00,21.9,20.5,00.0,30.8,23.7,06.3,0000.0,0003.06,0001.15,0000.79
2022-12-11 14:53:00,,0820.9,4.97,0.00,21.9,20.5,00.0,30.8,23.7,06.3,0000.0,0002.22,0001.17,0000.80
2022-12-11 14:54:00,,0820.9,5.03,0.00,21.9,20.5,00.0,30.8,23.7,06.3,0000.0,0002.06,0001.15,0000.80
2022-12-11 14:55:00,,0820.9,4.98,0.00,21.9,20.4,00.0,30.8,23.7,06.9,0000.0,0002.00,0001.15,0000.79
2022-12-11 14:56:00,,0820.9,4.99,0.00,21.9,20.3,00.0,30.8,23.6,06.9,0000.0,0002.11,0001.25,0000.86
2022-12-11 14:57:00,,0820.9,5.03,0.00,21.8,20.2,00.0,30.8,23.6,06.3,0000.0,0002.30,0001.31,0000.88
2022-12-11 14:58:00,,0820.9,4.98,0.00,21.8,20.1,00.0,30.7,23.5,06.2,0000.0,0002.34,0001.33,0000.87
2022-12-11 14:59:00,,0820.9,5.02,0.00,21.8,20.1,00.0,30.7,23.5,06.3,0000.0,0002.20,0001.28,0000.85
